TimeEEST,TemperatureF,Dew PointF,Humidity,Sea Level PressureIn,VisibilityMPH,Wind Direction,Wind SpeedMPH,Gust SpeedMPH,PrecipitationIn,Events,Conditions,WindDirDegrees,DateUTC
12:20 AM,57.2,48.2,72,30.06,6.2,NE,9.2,-,N/A,,Scattered Clouds,50,2013-05-18 21:20:00
12:50 AM,55.4,48.2,77,30.06,6.2,NNE,6.9,-,N/A,,Scattered Clouds,20,2013-05-18 21:50:00
1:20 AM,55.4,48.2,77,30.06,6.2,North,6.9,-,N/A,,Scattered Clouds,10,2013-05-18 22:20:00
1:50 AM,55.4,48.2,77,30.06,6.2,North,4.6,-,N/A,,Scattered Clouds,10,2013-05-18 22:50:00
2:20 AM,51.8,46.4,82,30.06,6.2,NNE,2.3,-,N/A,,Scattered Clouds,30,2013-05-18 23:20:00
2:50 AM,51.8,46.4,82,30.06,6.2,NE,3.5,-,N/A,,Scattered Clouds,40,2013-05-18 23:50:00
3:00 AM,51,47,82,,12,NE,3.5,,,,Partly Cloudy,40,2013-05-19 00:00:00
3:20 AM,50.0,46.4,87,30.06,6.2,NE,1.2,-,N/A,,Partly Cloudy,40,2013-05-19 00:20:00
3:50 AM,50.0,46.4,87,30.06,6.2,NNE,1.2,-,N/A,,Partly Cloudy,20,2013-05-19 00:50:00
4:20 AM,46.4,42.8,87,30.06,6.2,NNE,1.2,-,N/A,,Partly Cloudy,30,2013-05-19 01:20:00
4:50 AM,46.4,44.6,93,30.06,6.2,Calm,Calm,-,N/A,,Partly Cloudy,0,2013-05-19 01:50:00
5:20 AM,46.4,42.8,87,30.06,6.2,NNE,2.3,-,N/A,,Scattered Clouds,30,2013-05-19 02:20:00
5:50 AM,46.4,44.6,93,30.06,6.2,Calm,Calm,-,N/A,,Scattered Clouds,0,2013-05-19 02:50:00
6:20 AM,50.0,48.2,94,30.06,6.2,NNE,2.3,-,N/A,,Scattered Clouds,20,2013-05-19 03:20:00
6:50 AM,53.6,50.0,88,30.06,6.2,NNE,2.3,-,N/A,,Scattered Clouds,20,2013-05-19 03:50:00
7:20 AM,55.4,48.2,77,30.06,6.2,Calm,Calm,-,N/A,,Scattered Clouds,0,2013-05-19 04:20:00
7:50 AM,60.8,50.0,68,30.06,6.2,Calm,Calm,-,N/A,,Scattered Clouds,0,2013-05-19 04:50:00
8:20 AM,60.8,50.0,68,30.06,-9999.0,Calm,Calm,-,N/A,,Clear,0,2013-05-19 05:20:00
8:50 AM,64.4,50.0,59,30.06,-9999.0,Calm,Calm,-,N/A,,Clear,0,2013-05-19 05:50:00
9:00 AM,64,50,50,,12,Calm,Calm,,,,Clear,,2013-05-19 06:00:00
9:20 AM,66.2,50.0,56,30.06,6.2,Variable,2.3,-,N/A,,Scattered Clouds,0,2013-05-19 06:20:00
9:50 AM,68.0,51.8,56,30.06,6.2,Variable,2.3,-,N/A,,Scattered Clouds,0,2013-05-19 06:50:00
10:20 AM,69.8,50.0,49,30.04,6.2,WSW,4.6,-,N/A,,Scattered Clouds,250,2013-05-19 07:20:00
10:50 AM,71.6,48.2,43,30.04,6.2,West,5.8,-,N/A,,Scattered Clouds,280,2013-05-19 07:50:00
11:20 AM,71.6,42.8,35,30.04,6.2,WNW,8.1,-,N/A,,Scattered Clouds,290,2013-05-19 08:20:00
11:50 AM,71.6,44.6,38,30.04,6.2,WNW,5.8,-,N/A,,Scattered Clouds,300,2013-05-19 08:50:00
12:20 PM,71.6,42.8,35,30.04,6.2,WNW,9.2,-,N/A,,Scattered Clouds,300,2013-05-19 09:20:00
12:50 PM,73.4,42.8,33,30.01,6.2,West,9.2,-,N/A,,Scattered Clouds,270,2013-05-19 09:50:00
1:20 PM,73.4,42.8,33,30.01,6.2,West,9.2,-,N/A,,Scattered Clouds,280,2013-05-19 10:20:00
1:50 PM,75.2,41.0,29,30.01,6.2,NNW,9.2,-,N/A,,Scattered Clouds,330,2013-05-19 10:50:00
2:20 PM,73.4,39.2,29,29.98,6.2,NNW,9.2,-,N/A,,Scattered Clouds,340,2013-05-19 11:20:00
2:50 PM,75.2,39.2,27,29.98,6.2,WSW,4.6,-,N/A,,Scattered Clouds,250,2013-05-19 11:50:00
3:00 PM,74,38,17,,12,WSW,4.6,,,,Partly Cloudy,250,2013-05-19 12:00:00
3:20 PM,75.2,41.0,29,29.98,6.2,NW,9.2,-,N/A,,Mostly Cloudy,310,2013-05-19 12:20:00
3:50 PM,75.2,37.4,25,29.95,6.2,West,6.9,-,N/A,,Mostly Cloudy,280,2013-05-19 12:50:00
4:20 PM,75.2,39.2,27,29.95,6.2,West,10.4,-,N/A,,Scattered Clouds,270,2013-05-19 13:20:00
4:50 PM,75.2,37.4,25,29.95,6.2,West,9.2,-,N/A,,Mostly Cloudy,280,2013-05-19 13:50:00
5:20 PM,73.4,39.2,29,29.95,6.2,NNW,11.5,-,N/A,,Mostly Cloudy,340,2013-05-19 14:20:00
5:50 PM,73.4,41.0,31,29.92,6.2,North,10.4,-,N/A,,Scattered Clouds,350,2013-05-19 14:50:00
6:20 PM,71.6,42.8,35,29.92,6.2,North,9.2,-,N/A,,Scattered Clouds,350,2013-05-19 15:20:00
6:50 PM,71.6,42.8,35,29.95,6.2,North,6.9,-,N/A,,Scattered Clouds,350,2013-05-19 15:50:00
7:20 PM,69.8,42.8,38,29.95,6.2,North,5.8,-,N/A,,Scattered Clouds,360,2013-05-19 16:20:00
7:50 PM,66.2,42.8,43,29.95,6.2,NNE,6.9,-,N/A,,Partly Cloudy,20,2013-05-19 16:50:00
8:20 PM,62.6,46.4,55,29.95,6.2,ENE,12.7,-,N/A,,Partly Cloudy,60,2013-05-19 17:20:00
8:50 PM,60.8,46.4,59,29.98,6.2,NE,9.2,-,N/A,,Partly Cloudy,40,2013-05-19 17:50:00
9:00 PM,61,46,46,,12,NE,9.2,,,,Scattered Clouds,40,2013-05-19 18:00:00
9:20 PM,59.0,46.4,63,29.98,-9999.0,North,4.6,-,N/A,,Clear,350,2013-05-19 18:20:00
9:50 PM,57.2,46.4,67,29.98,-9999.0,Calm,Calm,-,N/A,,Clear,0,2013-05-19 18:50:00
10:20 PM,55.4,46.4,72,29.98,-9999.0,NE,5.8,-,N/A,,Clear,50,2013-05-19 19:20:00
10:50 PM,55.4,46.4,72,29.98,-9999.0,ENE,5.8,-,N/A,,Clear,60,2013-05-19 19:50:00
11:20 PM,57.2,46.4,67,29.98,-9999.0,Calm,Calm,-,N/A,,Clear,0,2013-05-19 20:20:00
11:50 PM,57.2,46.4,67,29.98,-9999.0,NNE,3.5,-,N/A,,Clear,30,2013-05-19 20:50:00